Location: Csohesd
(46.2500°N, 22.6167°E)
Time: 13:43:09
(UTC+00:00)

Cosmos 2344 - Pass Details

Date: 21 October 2021
Orbit: 1233 x 3009 km, 63.3° (Epoch: 06 December)

Event Time Altitude Azimuth Distance (km) Brightness Sun altitude
Rises 16:58:09 0° 319° (NW) 4,433 7.1 -15.5°
Reaches altitude 10° 17:00:47 10° 323° (NW) 3,582 6.5 -15.9°
Maximum altitude 17:09:36 64° 45° (NE) 1,940 4.3 -17.5°
Enters shadow 17:19:04 18° 122° (ESE) 4,048 5.7 -19.1°
